Activity Log for Sep, 09 2019

Back to Activity Log Search


Incident Time Nature Address
19F110849 00:14:30 129 62XX TOLBERT CT
19F110850 00:14:56 43 DISTURBANCE 53XX GOSHEN RD
19F110851 00:24:49 51,ATTEMPTED 36XX REED ST
19F110852 00:30:40 96IP 72XX PEERLESS DR
19F110853 00:49:52 51JO BROADWAY & W WASHINGTON BLVD
19F110854 00:56:51 911 HANG UP 67XX BLUFFTON RD
19F110855 00:58:18 48 SUSPICIOUS 12XX DELTA BLVD
19F110856 00:58:49 96JO 7XX PUTNAM ST
19F110857 01:00:57 43 DISTURBANCE 6XX N THREE RIVERS
19F110858 01:06:08 96JO PLAZA DR & MCKINNIE AVE
19F110859 01:13:50 40A AUDIBLE 76XX PATRIOT XING
19F110860 01:21:00 46 DOMESTIC 6XX WALNUT ST
19F110861 01:22:31 48 SUSPICIOUS 8XX W CREIGHTON AVE
19F110862 01:37:36 48,35 24XX HOAGLAND AVE
19F110863 01:38:42 53 ARMED ROB 31XX W COLISEUM BLVD
19F110864 01:39:24 48 SUSPICIOUS 10XX W WASHINGTON CENTER RD
19F110865 01:58:33 30 TRAFFIC STOP 34XX FELICIAN ST
19F110867 02:01:45 1 MEET 24XX HOAGLAND AVE
19F110866 02:02:18 43 DISTURBANCE 49XX GAYWOOD DR
19F110868 02:16:14 30 TRAFFIC STOP S CALHOUN ST & E JEFFERSON BLVD
19F110870 02:45:45 111D DOG 18XX W FOURTH ST
19F110869 03:09:34 46 DOMESTIC 20XX WALKER RD
19F110871 04:14:42 46 DOMESTIC 53XX EASTWICK DR
19F110872 04:18:13 48 SUSPICIOUS 5XX W JEFFERSON BLVD
19F110875 04:24:35 EMS 29XX GOSHEN RD
19F110873 04:25:27 30 TRAFFIC STOP E STATE BLVD & SPY RUN AVE
19F110874 04:32:12 30 TRAFFIC STOP MAYSVILLE RD & SANDARAC LN
19F110876 05:31:27 EMS 21XX HOBSON RD
19F110877 05:43:36 129 36XX DELRAY DR
19F110878 05:43:52 129 46XX WOODWAY DR
19F110880 05:48:01 66 MENTALLY ILL 35XX W COLISEUM BLVD
19F110879 05:51:40 15 ASSIST 21XX HOBSON RD
19F110881 06:08:01 103 UNWANTED 9XX LIBRARY PLAZA
19F110882 06:12:22 30 TRAFFIC STOP E COLISEUM BLVD & HARRY BAALS DR
19F110883 06:21:47 30 TRAFFIC STOP ARDMORE AVE & TAYLOR ST
19F110884 06:31:35 911 HANG UP 72XX BRADBURY AVE
19F110885 06:39:38 129 79XX RED CLOVER LN
19F110886 06:40:10 129 82XX GRAND FOREST CT
19F110888 06:50:42 39 STOLEN VEHIC 11XX SPRINGBROOK RD
19F110887 06:50:52 30 TRAFFIC STOP HOLTON AVE & E PETTIT AVE
19F110889 06:56:50 48,36 11XX GOSHEN AVE
19F110890 07:07:36 63 CONTACT 2XX N THREE RIVERS
19F110892 07:07:37 18 WORK TRAFFIC SOUTHWAYNE AVE & PASADENA DR
19F110896 07:08:38 18 WORK TRAFFIC REED RD & VANCE AVE
19F110897 07:09:27 18 WORK TRAFFIC TRIER RD & FERNBANK DR
19F110900 07:10:59 18 WORK TRAFFIC W STATE BLVD & TYLER AVE
19F110898 07:11:51 18 WORK TRAFFIC W WASHINGTON BLVD & ROCKHILL ST
19F110891 07:17:33 30 TRAFFIC STOP 53XX HOMESTEAD RD
19F110893 07:24:44 129 23XX FOREST PARK BLVD
19F110895 07:24:45 63 CONTACT 9XX LIBRARY PLAZA
19F110894 07:25:00 129 46XX W ARLINGTON PARK BLVD
19F110899 07:35:05 30 TRAFFIC STOP 56XX HOMESTEAD RD
19F110901 07:37:00 33,34 109XX ST JOE RD
19F110902 07:41:26 1 MEET 32XX CIERA CT
19F110903 07:44:38 25,86 EDSALL AVE & PENNSYLVANIA ST
19F110904 07:46:04 30 TRAFFIC STOP 54XX HOMESTEAD RD
19F110905 07:46:59 46 DOMESTIC 4XX W PAULDING RD
19F110906 07:51:33 48 SUSPICIOUS E TILLMAN RD & WOODLYNN DR
19F110907 07:54:25 25HS HIT SKIP DREXEL AVE & OLIVER ST
19F110917 07:56:34 111I INJURED 56XX N CLINTON ST
19F110910 07:57:02 34 TRAFF HAZARD 308XX I 69 SB
19F110908 07:58:00 30 TRAFFIC STOP 51XX HOMESTEAD RD
19F110909 07:58:51 51 THEFT 41XX N CLINTON ST
19F110911 08:01:52 30 TRAFFIC STOP VANCE AVE & REED RD
19F110912 08:07:55 30 TRAFFIC STOP VANCE AVE & REED RD
19F110913 08:08:48 30 TRAFFIC STOP GOSHEN AVE & POINSETTE DR
19F110914 08:08:50 17 MOTOR CHECK 28XX W COLISEUM BLVD
19F110915 08:13:01 30 TRAFFIC STOP HOBSON DR & E STATE BLVD
19F110916 08:13:13 33,34 308XX I 69 SB
19F110918 08:17:31 25 PD ACCIDENT I 69 AND LIMA RD
19F110919 08:24:49 30 TRAFFIC STOP ST MARYS AVE & GOSHEN AVE
19F110920 08:32:32 30 TRAFFIC STOP W JEFFERSON BLVD & APPLE GLEN BLVD
19F110921 08:32:34 30 TRAFFIC STOP W JEFFERSON BLVD & APPLE GLEN BLVD
19F110922 08:33:09 25 PD ACCIDENT W BERRY ST & BROADWAY
19F110923 08:35:23 30 TRAFFIC STOP WELLS ST & LILLIAN AVE
19F110924 08:41:12 22RC RECOVERY 34XX WEBSTER ST
19F110925 08:42:04 1 MEET 16XX HINTON DR
19F110927 08:54:21 99 NARCOTICS 32XX DINNEN AVE
19F110926 08:55:50 30 TRAFFIC STOP 51XX HOMESTEAD RD
19F110928 08:56:54 26 PI ACCIDENT WELLS ST & ARCHER AVE
19F110930 08:57:07 48 SUSPICIOUS 34XX PORTAGE BLVD
19F110932 09:00:55 34 TRAFF HAZARD 309XX I 69 NB
19F110931 09:07:20 48 SUSPICIOUS 2XX W SUPERIOR ST
19F110935 09:09:15 50 BURGLARY 15XX CASS ST
19F110933 09:10:10 46 DOMESTIC 21XX GLENWOOD AVE
19F110934 09:12:38 30 TRAFFIC STOP S WESTHAMILTON RD & W SR 14
19F110936 09:19:01 50 BURGLARY 10XX ELMWOOD AVE
19F110938 09:22:50 48,36 51XX COVENTRY LN
19F110940 09:33:11 911 HANG UP 11XX MCKINNIE AVE
19F110942 09:44:13 51 THEFT XX E MAIN ST
19F110941 09:44:38 51JO 70XX BLUFFTON RD
19F110943 09:52:53 43 DISTURBANCE 4XX W DEWALD ST
19F110946 09:56:16 911 HANG UP 44XX NEW HAVEN AVE
19F110944 09:56:44 57 STRONG ARM 38XX S BARR ST
19F110949 09:58:37 63 CONTACT 10XX E BERRY ST
19F110945 10:03:02 25 PD ACCIDENT S LAFAYETTE ST & OXFORD ST
19F110947 10:07:09 17 MOTOR CHECK 4XX E TILL RD
19F110955 10:12:27 25HS HIT SKIP 32XX CLINTON CT
19F110948 10:12:42 48 SUSPICIOUS 11XX WELLS ST
19F110950 10:16:07 103 UNWANTED 101XX LIMA RD
19F110951 10:18:18 102 THREATS 57XX S HARRISON ST
19F110952 10:18:30 11C CAGE CAR XX E MAIN ST
19F110957 10:27:35 39 STOLEN VEHIC 26XX S COLISEUM BLVD
19F110956 10:28:55 39R STOLEN RECO TURTLE CREEK DR & STARDALE DR
19F110953 10:30:49 911 HANG UP 99XX E DUPONT CIRCLE DR
19F110954 10:34:21 57 STRONG ARM 64XX BLUFFTON RD
19F110959 10:41:33 16 PICK UP ITEM 4XX W COLISEUM BLVD
19F110960 10:51:17 15 ASSIST 52XX REED ST
19F110961 10:52:40 43 DISTURBANCE 22XX MAPLECREST RD
19F110962 11:05:25 43 DISTURBANCE 22XX DUNKELBERG RD
19F110963 11:10:56 51,35 17XX S CALHOUN ST
19F110968 11:12:37 51 THEFT 30XX PITTSBURG ST
19F110964 11:12:40 102 THREATS 18XX BEACON ST
19F110965 11:12:52 48 SUSPICIOUS 9XX LIBRARY PLAZA
19F110967 11:20:04 47 REMOVE ITEMS 1XX E COLLINS RD
19F110966 11:20:12 65A SUICIDE ATT 101XX COVINGTON RD
19F110969 11:22:22 15 ASSIST 41XX S MONROE ST
19F110970 11:32:21 48 SUSPICIOUS 20XX BAYVIEW DR
19F110975 11:33:46 1 MEET 35XX W COLISEUM BLVD
19F110973 11:34:38 15 ASSIST 49XX CAMDEN DR
19F110972 11:35:12 43 DISTURBANCE 4XX W COX DR
19F110974 11:35:51 63 CONTACT 20XX BAYVIEW DR
19F110993 11:39:20 51 THEFT 5XX LOWER HUNTINGTON RD
19F110979 11:41:50 40A AUDIBLE 22XX PARNELL AVE
19F110976 11:41:52 43 DISTURBANCE 6XX W JEFFERSON BLVD
19F110977 11:43:12 46 DOMESTIC 44XX BLUFFTON RD
19F110982 11:43:30 43 DISTURBANCE 3XX W CREIGHTON AVE
19F110978 11:45:57 37 PARKING VIOL 84XX LIONSGATE RUN
19F110981 11:45:59 911 HANG UP 58XX S ANTHONY BLVD
19F110980 11:46:30 30 TRAFFIC STOP LIMA RD & W WASHINGTON CENTER RD
19F110983 11:51:47 43 DISTURBANCE 4XX W MAPLE GROVE AVE
19F110984 11:53:10 43 DISTURBANCE 27XX S CLINTON ST
19F110985 11:55:16 101 OPEN DOOR 12XX SPY RUN AVE
19F110986 11:57:14 38 LOST/STOLEN 104XX MAYSVILLE RD
19F110987 11:57:55 33,34 LAKE AVE & N COLISEUM BLVD
19F110991 12:00:22 22RN RUNAWAY 11XX MILTON ST
19F110989 12:03:04 1 MEET 74XX S ANTHONY BLVD
19F110992 12:04:14 39U UNAUTHORIZE 3XX RAYS CREEK WAY
19F110988 12:05:45 51 THEFT 75XX SOUTHTOWN XING
19F110990 12:07:39 40H HOLDUP ALRM 67XX W JEFFERSON BLVD
19F110994 12:19:56 65T SUICIDE THR 38XX DARWOOD CT
19F110996 12:21:20 63 CONTACT 26XX CHICHESTER LN
19F110995 12:21:22 25HS HIT SKIP E PAULDING RD & WINTER ST
19F110997 12:24:49 25 PD ACCIDENT BROADWAY & TAYLOR ST
19F110998 12:27:40 1 MEET XX E MAIN ST
19F111000 12:28:39 46 DOMESTIC XX E MAIN ST
19F110999 12:29:22 22I JUV INVEST 20XX ALABAMA AVE
19F111001 12:31:38 51,35 25XX PALISADE DR
19F111002 12:31:45 34 TRAFF HAZARD 34XX N CLINTON ST
19F111003 12:44:17 25 PD ACCIDENT LIMA RD & ORLANDO DR
19F111004 12:45:08 63Z ZACH CHECK 12XX E PETTIT AVE
19F111005 12:45:56 1 MEET XX E MAIN ST
19F111006 12:48:57 25 PD ACCIDENT FAIRFIELD AVE & W PETTIT AVE
19F111011 12:51:17 25 PD ACCIDENT LIMA RD & ORLANDO DR
19F111008 12:51:19 96JO 63XX LIMA RD
19F111007 12:52:04 65T SUICIDE THR 53XX DISTRIBUTION DR
19F111012 12:52:45 40A AUDIBLE 93XX N CLINTON ST
19F111009 12:53:49 EMS 106XX LIBERTY MILLS RD
19F111010 12:54:54 25 PD ACCIDENT 49XX LIMA RD
19F111014 12:55:54 99 NARCOTICS 68XX JOHN ST
19F111015 13:03:18 63 CONTACT 53XX STONECREEK TRL
19F111013 13:04:40 108 FOLLOWUP 9XX E WASHINGTON BLVD
19F111016 13:09:30 48 SUSPICIOUS 2XX E MAIN ST
19F111017 13:17:12 22RC RECOVERY 22XX OLIVER ST
19F111018 13:19:18 33,34 311XX I 69 NB
19F111019 13:23:52 34 TRAFF HAZARD I 69 AND US 30
19F111020 13:29:45 51,35 30XX WINTER ST
19F111030 13:30:12 22I JUV INVEST 7XX W WASHINGTON BLVD
19F111021 13:31:03 25 PD ACCIDENT S ANTHONY BLVD & E RUDISILL BLVD
19F111023 13:34:07 63 CONTACT 37XX E WASHINGTON BLVD
19F111022 13:36:24 16,97 LIMA RD & LIMA VALLEY DR
19F111024 13:40:15 43 DISTURBANCE 60XX ILLINOIS RD
19F111039 13:40:35 61 RAPE XX E MAIN ST
19F111026 13:41:01 43 DISTURBANCE S MONROE ST & E BERRY ST
19F111029 13:43:19 39JO 17XX ST MARYS AVE
19F111025 13:43:44 22I JUV INVEST 70XX COLDWATER RD
19F111027 13:44:50 66 MENTALLY ILL 4XX E STATE BLVD
19F111028 13:45:45 51 THEFT 1XX W OAKDALE DR
19F111031 13:46:04 51JO 55XX MEIJER DR
19F111035 13:47:25 1 MEET 17XX BEACON ST
19F111034 13:51:15 40A AUDIBLE 114XX WELSFORD CT
19F111033 13:52:16 25 PD ACCIDENT E JEFFERSON BLVD & CLAY ST
19F111041 13:52:53 51 THEFT 25XX E ST THOMAS PT
19F111037 13:53:41 25,86 7XX W WASHINGTON CENTER RD
19F111032 13:54:43 51,35 39XX TAYLOR ST
19F111038 13:56:49 96JO 15XX BLUFFTON RD
19F111036 13:56:54 96JO 13XX N COLISEUM BLVD
19F111040 14:01:52 33,34 TAYLOR ST & FREEMAN ST
19F111042 14:04:54 30 TRAFFIC STOP 9XX E WALLEN RD
19F111043 14:07:18 108 FOLLOWUP 55XX MEIJER DR
19F111053 14:07:31 18 WORK TRAFFIC TRIER RD & FERNBANK DR
19F111052 14:07:40 17 MOTOR CHECK 74XX CAPRI DR
19F111062 14:08:55 18 WORK TRAFFIC W WASHINGTON BLVD & ROCKHILL ST
19F111054 14:09:25 18 WORK TRAFFIC E STATE BLVD & LAVERNE AVE
19F111044 14:10:18 108 FOLLOWUP 4XX E STATE BLVD
19F111045 14:13:26 25HS HIT SKIP S ANTHONY BLVD & E RUDISILL BLVD
19F111046 14:13:39 48 SUSPICIOUS E COLISEUM BLVD & COLDWATER RD
19F111047 14:14:45 30 TRAFFIC STOP 12XX W WALLEN RD
19F111048 14:15:18 62 PARTY ARMED ILLINOIS RD & S SCOTT RD
19F111049 14:22:58 25 PD ACCIDENT S HADLEY RD & COVINGTON RD
19F111051 14:24:11 48 SUSPICIOUS PELHAM DR & SHARON DR
19F111050 14:25:20 14S SERVING WAR 42XX S LAFAYETTE ST
19F111055 14:27:53 15 ASSIST 22XX ONTARIO ST
19F111058 14:32:35 51JO 53XX COLDWATER RD
19F111056 14:32:42 30 TRAFFIC STOP 312XX I 69 SB
19F111057 14:34:40 43,62 9XX PEMBERTON DR
19F111059 14:36:32 51JO 14XX AIRPORT NORTH OFFICE PARK
19F111061 14:38:52 108 FOLLOWUP 75XX SOUTHTOWN XING
19F111060 14:40:41 30 TRAFFIC STOP W STATE BLVD & EDITH AVE
19F111063 14:44:52 30 TRAFFIC STOP S ANTHONY BLVD & E WAYNE ST
19F111064 14:46:28 51JO 18XX IDA AVE
19F111066 14:51:13 51 THEFT 40XX ARLINGTON AVE
19F111065 14:52:13 22I JUV INVEST 12XX E WASHINGTON CENTER RD
19F111067 14:52:38 46 DOMESTIC 3XX W BERRY ST
19F111069 14:56:07 15 ASSIST 13XX MAYCREST DR
19F111068 14:56:10 46 DOMESTIC 42XX BUELL DR
19F111070 14:57:19 51JO 8XX E COLISEUM BLVD
19F111071 15:01:19 30 TRAFFIC STOP W JEFFERSON BLVD & LIBERTY MILLS R
19F111072 15:01:27 46 DOMESTIC 67XX TRIER RD
19F111076 15:01:58 48 SUSPICIOUS 33XX COVINGTON RD
19F111073 15:03:17 51JO 39XX S ANTHONY BLVD
19F111074 15:05:19 43 DISTURBANCE 31XX SOUTHWIN DR
19F111075 15:07:26 33 DISABLED VEH 91XX LIMA RD
19F111077 15:10:34 40P PANIC ALARM 25XX RIVER PARK DR
19F111126 15:10:37 50 BURGLARY 31XX THOMPSON AVE
19F111084 15:11:38 17 MOTOR CHECK 16XX THIRD ST
19F111092 15:14:18 46 DOMESTIC 40XX HOBSON RD
19F111079 15:19:34 55 FIGHT BROADWAY & W WASHINGTON BLVD
19F111082 15:19:43 63 CONTACT 103XX ILLINOIS RD
19F111081 15:21:04 43 DISTURBANCE 65XX E STATE BLVD
19F111080 15:21:07 15 ASSIST 43XX S MONROE ST
19F111083 15:26:19 39R STOLEN RECO 23XX EBY AVE
19F111089 15:28:18 51 THEFT XX E MAIN ST
19F111085 15:29:47 96 BATTERY 26XX MANFORD ST
19F111086 15:34:28 41 MAN DOWN 13XX THIRD ST
19F111087 15:37:41 30 TRAFFIC STOP COVENTRY LN & W JEFFERSON BLVD
19F111090 15:38:55 65T SUICIDE THR 21XX LINCOLNWAY CT
19F111094 15:41:41 51 THEFT XX E MAIN ST
19F111093 15:43:01 46 DOMESTIC 26XX WESTWARD DR
19F111091 15:43:22 51JO 11XX N COLISEUM BLVD
19F111095 15:49:22 22I JUV INVEST 8XX RIDGEWOOD DR
19F111096 15:52:05 20 PROBLEM UNK 13XX GREENE ST
19F111097 15:52:28 50IP BURG I/P 22XX DALE DR
19F111099 15:55:54 39U UNAUTHORIZE XX E MAIN ST
19F111098 16:03:55 48 SUSPICIOUS 2XX E MAIN ST
19F111100 16:14:11 25 PD ACCIDENT DODGE AVE & N ANTHONY BLVD
19F111101 16:16:27 51 THEFT 34XX MEYER RD
19F111102 16:20:29 46 DOMESTIC 47XX GAYWOOD DR
19F111103 16:23:00 22N CHILD NEGLE 47XX GAYWOOD DR
19F111104 16:24:33 25HS HIT SKIP FAIRFIELD AVE & W PONTIAC ST
19F111105 16:31:51 23 VANDALISM 32XX TREEBARK LN
19F111107 16:34:21 47 REMOVE ITEMS 34XX TIMBERHILL DR
19F111106 16:36:50 129 63XX AMARILLO DR
19F111108 16:39:21 22I JUV INVEST 69XX LAKE VALLEY CT
19F111109 16:44:20 101 OPEN DOOR 26XX MAUMEE AVE
19F111110 16:44:44 30 TRAFFIC STOP E PONTIAC ST & BOWSER AVE
19F111111 16:47:49 25 PD ACCIDENT W JEFFERSON BLVD & W WASHINGTON BL
19F111112 16:47:53 EMS 64XX EVARD VILLAGE PKWY
19F111113 16:49:27 37 PARKING VIOL 56XX RADCLIFFE CT
19F111114 16:52:34 43 DISTURBANCE 9XX E WASHINGTON BLVD
19F111115 16:54:20 25 PD ACCIDENT 98XX LIMA RD
19F111116 16:55:48 30 TRAFFIC STOP 48XX W JEFFERSON BLVD
19F111117 16:56:14 30 TRAFFIC STOP 42XX W JEFFERSON BLVD
19F111120 16:56:26 EMS 31XX WELLS ST
19F111118 16:57:06 30 TRAFFIC STOP 42XX W JEFFERSON BLVD
19F111119 16:57:22 30 TRAFFIC STOP 42XX W JEFFERSON BLVD
19F111122 17:01:28 46 DOMESTIC 48XX TURBO TRL
19F111121 17:02:06 46 DOMESTIC 6XX S CALHOUN ST
19F111123 17:02:28 63 CONTACT 2XX LIGHTNING WOOD CT
19F111125 17:04:43 102 THREATS 46XX FAIRLAWN PASS
19F111124 17:04:56 50JO 60XX RADCLIFFE DR
19F111127 17:10:45 30 TRAFFIC STOP ST JOE RD & ST JOE CENTER RD
19F111128 17:11:27 911 HANG UP 62XX SUGAR TREE PL
19F111129 17:11:44 43 DISTURBANCE DECATUR RD & GABLE RD
19F111130 17:23:49 51 THEFT 14XX W DUPONT RD
19F111131 17:25:57 34 TRAFF HAZARD S COLISEUM BLVD AND E WASHINGTON B
19F111137 17:26:05 15 ASSIST 64XX LAMPWICK LN
19F111132 17:28:57 23,35 VAND VEH 5XX E MASTERSON AVE
19F111133 17:31:56 22I JUV INVEST 3XX S CORNELL CIR
19F111134 17:41:11 129 23XX MAUMEE AVE
19F111136 17:42:18 27 RECKLESS DRI LIMA RD & W WASHINGTON CENTER RD
19F111135 17:43:56 25 PD ACCIDENT N ANTHONY BLVD & E COLISEUM BLVD
19F111139 17:48:18 43 DISTURBANCE 6XX E DUPONT RD
19F111138 17:48:58 22I JUV INVEST W DEWALD ST & MINER ST
19F111141 17:49:22 50,ATTEMPTED 80XX WEEPING WILLOW CT
19F111140 17:50:57 17 MOTOR CHECK 36XX W WASHINGTON CENTER RD
19F111143 18:01:23 48 SUSPICIOUS 53XX COLDWATER RD
19F111144 18:02:27 1 MEET W BUTLER ST & S CALHOUN ST
19F111145 18:02:36 51 THEFT 44XX MIRADA DR
19F111146 18:07:30 48 SUSPICIOUS 19XX BROADWAY
19F111147 18:08:31 43 DISTURBANCE 46XX EUCLID AVE
19F111148 18:10:02 48 SUSPICIOUS E COLISEUM BLVD & COLDWATER RD
19F111149 18:10:20 30 TRAFFIC STOP 50XX ST JOE RD
19F111150 18:10:27 30 TRAFFIC STOP W MAIN ST & VAN BUREN ST
19F111151 18:11:05 27 RECKLESS DRI 36XX MCCORMICK AVE
19F111152 18:12:47 30 TRAFFIC STOP ST JOE RD & ASHLAND DR
19F111153 18:14:51 39 STOLEN VEHIC 81XX PEPPERWOOD CT
19F111154 18:16:37 99 NARCOTICS 3XX W WASHINGTON CENTER RD
19F111156 18:23:42 25 PD ACCIDENT S CLINTON ST & E LEWIS ST
19F111155 18:25:27 63Z ZACH CHECK 49XX LIMA RD
19F111157 18:32:31 911 HANG UP 10XX N COLISEUM BLVD
19F111158 18:34:32 103 UNWANTED 31XX ELMHURST DR
19F111167 18:37:56 1 MEET HOAGLAND AVE & W WILDWOOD AVE
19F111159 18:40:07 46,96 7XX RUSSELL AVE
19F111162 18:40:45 25HS HIT SKIP N COLISEUM BLVD & E STATE BLVD
19F111160 18:40:46 25 PD ACCIDENT 31XX ST JOE CENTER RD
19F111161 18:41:27 23JO 48XX WEISSER PARK AVE
19F111163 18:47:34 43 DISTURBANCE 4XX KINSMOOR AVE
19F111164 18:58:13 51JO 4XX E PAULDING RD
19F111165 18:59:44 63Z ZACH CHECK 8XX THIRD ST
19F111166 19:02:33 30 TRAFFIC STOP LIMA RD & W LUDWIG RD
19F111168 19:02:37 103 UNWANTED 17XX APPLE GLEN BLVD
19F111169 19:04:32 61 RAPE 5XX THURSTON CT
19F111179 19:06:17 51 THEFT 12XX N GLENDALE DR
19F111170 19:07:31 EMS 54XX OLD DOVER BLVD
19F111171 19:08:18 43 DISTURBANCE 31XX PITTSBURG ST
19F111172 19:11:01 25 PD ACCIDENT 66XX N CLINTON ST
19F111173 19:12:46 40A AUDIBLE 64XX E STATE BLVD
19F111174 19:15:12 51 THEFT 22XX OPECHEE WAY
19F111175 19:16:34 40A AUDIBLE 58XX S ANTHONY BLVD
19F111176 19:24:24 40P PANIC ALARM 11XX ST MARYS AVE
19F111178 19:24:36 101 OPEN DOOR 9XX FULTON ST
19F111203 19:24:52 23,35 VAND VEH 30XX SHAWNEE DR
19F111177 19:26:42 51 THEFT S WESTHAMILTON RD & COVINGTON RD
19F111180 19:35:20 30 TRAFFIC STOP W WASHINGTON CENTER RD & LIMA RD
19F111181 19:35:28 46 DOMESTIC 7XX EWING ST
19F111182 19:39:00 43 DISTURBANCE 48XX JASON DR
19F111186 19:41:53 11C CAGE CAR 75XX SOUTHTOWN XING
19F111185 19:42:58 66 MENTALLY ILL 6XX S HARRISON ST
19F111184 19:44:26 51JO 31XX BEACON ST
19F111183 19:44:54 30 TRAFFIC STOP COLDWATER RD & E WASHINGTON CENTER
19F111187 19:48:15 30 TRAFFIC STOP W WASHINGTON BLVD & WEBSTER ST
19F111188 19:52:40 66V MENTAL VIOL 29XX PLAZA DR
19F111189 19:55:18 113 SHOTS FIRED 30XX WINTER ST
19F111190 19:59:35 102 THREATS 31XX CHERRY LN
19F111191 20:02:21 33J LOCKED OUT E STATE BLVD & PARNELL AVE
19F111192 20:03:13 96JO SHERMAN BLVD & VAN BUREN ST
19F111193 20:06:38 96JO E PETTIT AVE & GAYWOOD DR
19F111204 20:07:04 25HS HIT SKIP 17XX APPLE GLEN BLVD
19F111194 20:07:38 48 SUSPICIOUS 15XX BLUFFTON RD
19F111195 20:13:00 43 DISTURBANCE 46XX EUCLID AVE
19F111202 20:13:14 22I JUV INVEST 75XX CLOVER MEADOW DR
19F111196 20:14:38 30 TRAFFIC STOP N CLINTON ST & E STATE BLVD
19F111198 20:14:40 24 MISSING PERS 4XX E DUPONT RD
19F111197 20:17:49 40A AUDIBLE 24XX GOSHEN RD
19F111199 20:18:54 1 MEET 3XX E WASHINGTON BLVD
19F111200 20:25:07 40A AUDIBLE 62XX PLANTATION LN
19F111201 20:25:46 1 MEET 23XX W MAIN ST
19F111206 20:39:41 30 TRAFFIC STOP S ANTHONY BLVD & E LEWIS ST
19F111207 20:47:47 50JO 78XX PRESTON POINTE DR
19F111208 20:48:02 37 PARKING VIOL 8XX WOODVIEW BLVD
19F111209 20:51:04 25 PD ACCIDENT 74XX S ANTHONY BLVD
19F111210 20:54:42 46 DOMESTIC 81XX ROXBORO CT
19F111211 20:55:32 41,36 S LAFAYETTE ST & SENATE AVE
19F111213 20:57:14 43 DISTURBANCE 27XX STERLING ST
19F111212 20:59:08 46 DOMESTIC 42XX BUELL DR
19F111214 21:02:19 63Z ZACH CHECK 19XX EMERSON AVE
19F111217 21:05:52 22N CHILD NEGLE 4XX W WILLIAMS ST
19F111216 21:06:35 39 STOLEN VEHIC 51XX STONEHEDGE BLVD
19F111215 21:08:02 66 MENTALLY ILL 27XX MANFORD ST
19F111218 21:11:44 33,34 W JEFFERSON BLVD & APPLE GLEN BLVD
19F111222 21:12:24 48,36 33XX LOST VALLEY RD
19F111220 21:14:23 22I JUV INVEST 82XX MAPLE VALLEY DR
19F111219 21:14:48 50IP BURG I/P 8XX W DEWALD ST
19F111221 21:17:46 48,36 31XX WOODROW AVE
19F111224 21:19:29 24 MISSING PERS 33XX OAK GLEN TRL
19F111223 21:20:28 46 DOMESTIC 42XX BUELL DR
19F111225 21:25:25 113 SHOTS FIRED 21XX NELSON ST
19F111226 21:27:34 113 SHOTS FIRED 35XX S HARRISON ST
19F111228 21:29:30 43 DISTURBANCE 65XX E STATE BLVD
19F111227 21:30:26 50JO 65XX COVINGTON RD
19F111229 21:32:09 46,96 31XX WELLS ST
19F111230 21:34:50 103 UNWANTED 5XX E JEFFERSON BLVD
19F111233 21:36:15 40A AUDIBLE 24XX GOSHEN RD
19F111231 21:39:36 48,36 RIDGEBROOK BLVD & DRIVE 2
19F111232 21:41:13 30 TRAFFIC STOP FREEMAN ST & PORTAGE BLVD
19F111234 21:48:17 46,96 49XX WEBSTER ST
19F111241 21:49:35 50 BURGLARY 14XX E RUDISILL BLVD
19F111235 21:54:38 66 MENTALLY ILL 51XX OLIVER ST
19F111236 22:02:47 48,36 13XX UNION ST
19F111237 22:04:26 46 DOMESTIC 31XX SUNDALE DR
19F111238 22:05:18 30 TRAFFIC STOP LIMA RD & W WALLEN RD
19F111239 22:05:41 30 TRAFFIC STOP 15XX GOSHEN AVE
19F111240 22:06:12 40A AUDIBLE 39XX ILLINOIS RD
19F111242 22:07:15 911 HANG UP 42XX BUELL DR
19F111244 22:11:30 25 PD ACCIDENT CRESCENT AVE & LAWSHE DR
19F111243 22:11:51 37 PARKING VIOL 36XX DELRAY DR
19F111245 22:13:19 48 SUSPICIOUS 15XX BLUFFTON RD
19F111246 22:14:40 48 SUSPICIOUS 11XX TAYLOR ST
19F111247 22:17:54 30 TRAFFIC STOP ST JOE CENTER RD & LAHMEYER RD
19F111248 22:17:55 40A AUDIBLE 41XX PARNELL AVE
19F111249 22:26:14 1 MEET 47XX INDIANA AVE
19F111250 22:26:37 40A AUDIBLE 10XX W COLISEUM BLVD
19F111251 22:32:21 30 TRAFFIC STOP COLDWATER RD & E COOK RD
19F111252 22:32:28 48,35 49XX MADIERA DR
19F111253 22:35:17 101 OPEN DOOR 13XX HENRY AVE
19F111254 22:41:51 30 TRAFFIC STOP NORTHHIGHLANDS BLVD & HUFFMAN BLVD
19F111255 22:44:30 33,34 313XX I 69 SB
19F111256 22:51:30 911 HANG UP 2XX E FOURTH ST
19F111257 22:52:22 43 DISTURBANCE 11XX WILT ST
19F111258 22:53:25 37 PARKING VIOL 62XX ST JOE RD
19F111266 22:54:44 48 SUSPICIOUS BLUFFTON RD & BROADWAY
19F111259 22:56:28 63 CONTACT N COLISEUM BLVD & E STATE BLVD
19F111262 22:58:23 65T SUICIDE THR 10XX RIVERMET AVE
19F111260 23:00:27 44LP 79XX DECATUR RD
19F111261 23:02:34 30 TRAFFIC STOP WELLS ST & FLORENCE AVE
19F111263 23:04:36 30 TRAFFIC STOP E LEWIS ST & FRANCIS ST
19F111265 23:05:24 51IP 24XX MAUMEE AVE
19F111264 23:05:40 30 TRAFFIC STOP S HANNA ST & OXFORD ST
19F111267 23:12:40 103 UNWANTED 16XX E RUDISILL BLVD
19F111268 23:18:05 65T SUICIDE THR 69XX HUGUENARD RD
19F111269 23:20:09 30 TRAFFIC STOP TAYLOR ST & NELSON ST
19F111270 23:20:12 43 DISTURBANCE 13XX FAYETTE DR
19F111271 23:23:55 65T SUICIDE THR 9XX MILDRED AVE
19F111272 23:35:00 48 SUSPICIOUS 94XX SILVER FOX DR
19F111273 23:42:06 48 SUSPICIOUS 21XX EDEN ST
19F111274 23:44:25 30 TRAFFIC STOP NEW HAVEN AVE & S COLISEUM BLVD
19F111275 23:46:38 66 MENTALLY ILL 79XX SERENITY DR